Regional Weather Roundup
Issued by NWS

Home | Current Version | Previous Version | Text Only | Print | Product List | Glossary On
Versions: 1 2 3 4 5 6 7 8 9 10 11 12 13 14 15 16 17 18 19 20 21 22 23 24 25 26 27 28 29 30 31 32 33 34 35 36 37 38 39 40 41 42 43 44 45 46 47 48 49 50
000
ASUS44 KEWX 251311
RWRTX
SOUTH TEXAS REGIONAL WEATHER ROUNDUP
NATIONAL WEATHER SERVICE AUSTIN/SAN ANTONIO TX
800 AM CDT WED MAY 25 2016

NOTE: "FAIR" INDICATED FEW OR NO CLOUDS BELOW 12,000 FEET WITH NO
SIGNIFICANT WEATHER AND/OR OBSTRUCTIONS TO VISIBILITY.

* - THESE STATIONS ARE NOT NWS OR FAA STATIONS...AND ARE NOT SUBJECT
    TO NWS AND FAA QUALITY CONTROL.

TXZ171-172-183>190-251400-
TEXAS HILL COUNTRY AND EDWARDS PLATEAU

CITY           SKY/WX    TMP DP  RH WIND       PRES   REMARKS
JUNCTION       CLOUDY    76  71  85 S6        29.98R HAZE
*LLANO         CLOUDY    77  73  88 S7        30.00S
BURNET         CLOUDY    75  70  84 S9        30.00S
*HORSESHOE BAY CLOUDY    76  72  86 S6        29.98S
*KERRVILLE     CLOUDY    74  73  95 S9        30.00R FOG
*FREDERICKSBRG CLOUDY    73  70  90 S9        30.00R
*ROCKSPRINGS   CLOUDY    73  73 100 S16       30.03R
*BOERNE STAGE  CLOUDY    73  72  94 S10G17    30.01S
*CASTROVILLE   CLOUDY    77  75  93 SE7       29.99S FOG
HONDO          CLOUDY    77  75  93 SE9       29.99R
*UVALDE        CLOUDY    76  74  92 SE10      29.98R FOG
DEL RIO        CLOUDY    78  75  90 SE13      29.93R
LAUGHLIN AFB   CLOUDY    77  74  91 SE14      29.94R
CARRIZO SPRGS  CLOUDY    77  75  94 SE7       29.94R
*EAGLE PASS    CLOUDY    77  75  94 SE8       29.96R FOG
$$

TXZ173-191>194-202-209-217>225-228-251400-
CENTRAL AND SOUTH CENTRAL TEXAS

CITY           SKY/WX    TMP DP  RH WIND       PRES   REMARKS
GEORGETOWN     PTSUNNY   77  75  94 S13       29.99R
AUSTIN/BERGSTM CLOUDY    79  75  87 S9        29.97S
AUSTIN/MABRY   CLOUDY    78  74  87 VRB6      29.99S
*AUSTIN/EXEC   CLOUDY    77  75  94 S9        29.99S FOG
*LAGO VISTA    CLOUDY    76  73  90 S8        30.00S
SAN MARCOS     PTSUNNY   75  75 100 SE8       29.98S FOG
NEW BRAUNFELS  CLOUDY    78  75  90 S8        29.97S
RANDOLPH AFB   CLOUDY    77  77 100 S10       29.98R
PT SAN ANTONIO PTSUNNY   79  75  89 S12       29.96S
SAN ANTONIO    LGT RAIN  78  74  87 SE12      29.98S
STINSON FIELD  CLOUDY    79  75  87 SE8       29.95S
*PLEASANTON    CLOUDY    77  76  95 E7        29.96F FOG
*LA GRANGE       N/A     80  77  92 SE6       29.99R FOG
*GIDDINGS      CLOUDY    78  74  90 S10       30.04R
*GONZALES      CLOUDY    79  79  99 S8        29.98S
$$

TXZ163>164-176>182-195>201-210>213-226-227-235-251400-
SOUTHEAST TEXAS

CITY           SKY/WX    TMP DP  RH WIND       PRES   REMARKS
COLLEGE STN    CLOUDY    79  76  90 S13       30.01R
*BRYAN         CLOUDY    78  78 100 SE7       30.02S
*CALDWELL      PTSUNNY   77  77 100 SE8       30.04R FOG
*CROCKETT      PTSUNNY   77  73  88 S7        30.06R
*BRENHAM       CLOUDY    80  78  92 SE7       30.02R
HUNTSVILLE     CLOUDY    79  74  84 S7        30.03R
CONROE         CLOUDY    78  75  90 SE12      30.03S
HOUSTON BUSH   MOSUNNY   79  76  90 SE10      30.03R
HOUSTON HOBBY  PTSUNNY   81  77  88 SE6       30.03R
*HOUSTON SW AP CLOUDY    79  76  93 SE5       30.04R FOG
PEARLAND       CLOUDY    82  77  84 SE9       30.05R HX  90
HOUSTON HOOKS  PTSUNNY   80  76  87 SE7       30.03R
ELLINGTON FLD  PTSUNNY   82  81  94 SE7       30.04R HX  95
SUGAR LAND     CLOUDY    79  76  90 SE8       30.02R
*HOUSTON EXEC  CLOUDY    79  75  89 S10       30.04R
*CLEVELAND MUN CLOUDY    78  77  96 S6        30.05R FOG
*WHARTON       MOSUNNY   78  77  95 SE5       30.03R FOG
*COLUMBUS      CLOUDY    77  76  97 SE5       30.00S
*EAGLE LAKE    CLOUDY    77  77  99 SE5       30.01S FOG
$$

TXZ214>216-236>238-251400-
THE UPPER TEXAS COAST

CITY           SKY/WX    TMP DP  RH WIND       PRES   REMARKS
*ORANGE        CLOUDY    80  74  83 S7        30.09R
PORT ARTHUR    PTSUNNY   80  75  84 SE9       30.06R
GALVESTON      CLOUDY    80  78  94 SE10      30.05R
ANGLETON       PTSUNNY   82  76  81 S13       30.03R
*BAY CITY      CLOUDY    80  78  95 SE5       30.02R FOG
PALACIOS       CLOUDY    81  77  88 SE12      29.99R
$$

TXZ229>234-239>247-251400-
TEXAS COASTAL BEND AND RIO GRANDE PLAINS

CITY           SKY/WX    TMP DP  RH WIND       PRES   REMARKS
VICTORIA       CLOUDY    79  77  94 SE5       29.99R FOG
*BEEVILLE      CLOUDY    71  71 100 SE5       29.98R FOG
ROCKPORT       CLOUDY    82  77  84 SE10      29.97R HAZE    HX  90
*PORT ARANSAS  CLOUDY    81  80  98 SE5       29.98R FOG     HX  91
*PORT LAVACA   MOSUNNY   80  78  94 SE8       30.00R FOG
*INGLESIDE     PTSUNNY   59  56  90 S6        29.97R FOG
CORPUS CHRISTI PTSUNNY   81  78  91 SE7       29.96R FOG
CORPUS NAS     CLOUDY    83  80  91 S10       29.96R HX  95
*ROBSTOWN      CLOUDY    80  78  95 SE3       29.97R FOG
ALICE          CLOUDY    79  77  94 VRB6      29.96S FOG
KINGSVILLE NAS PTSUNNY   81  81 100 CALM      29.95R FOG     HX  92
COTULLA        CLOUDY    80  75  84 SE10      29.95R
*FAITH RANCH     N/A    N/A N/A N/A MISG        N/A
LAREDO         CLOUDY    80  76  87 SE14      29.94R
$$

TXZ248>255-251400-
DEEP SOUTH TEXAS

CITY           SKY/WX    TMP DP  RH WIND       PRES   REMARKS
BROWNSVILLE    CLOUDY    81  78  91 SE14      29.95R
PORT ISABEL    MOSUNNY   83  79  88 S13       29.94R FOG     HX  94
*SOUTH PADRE     N/A     82  79  89 S10       29.96R HX  93
HARLINGEN      CLOUDY    83  78  85 SE10      29.93S HAZE    HX  93
*HEBBRONVILLE  CLOUDY    78  76  92 SE6       29.98S FOG
MCALLEN        CLOUDY    82  78  88 SE9       29.94R FOG     HX  91
*WESLACO       MOSUNNY   81  76  86 SE9       29.93R FOG
FALFURRIAS     MOSUNNY   80  77  90 SE6       29.95R
EDINBURG       MOSUNNY   82  78  87 SE6       29.94S FOG     HX  90
*ZAPATA        CLOUDY    80  76  89 SE7       29.94R FOG
$$

TXZ213>215-236>238-242>244-246-247-251-254-255-251400-
CMAN STATIONS

STATION/POSITION TIME  TEMP    WIND        PRES    WAVE
                       AIR SEA DIR/SP/G            HT/PER
                 (UTC) (F)     (DEG/KT/KT) (MB)    (FT/S)
SABINE PASS      1200   79 80  150/ 10/ 13 1019.0
SEA RIM ST PARK  1300   80     150/ 10/ 12 1018.6
NORTH JETTY/GLS  1200   81 81                N/A
EAGLE POINT      1200   80 75  170/ 14/ 16 1016.6
MORGANS POINT    1200   80 76  140/  8/ 11 1016.7
MISSION/ARANSAS  1200                      1015.0
PORT O`CONNOR    1200          160/ 11/ 13   N/A
PORT ARANSAS     1300   81 81  130/  8/ 10 1015.6
MALAQUITE BEACH  1200   81 83  150/ 13/ 15 1014.2
BAFFIN BAY       1200   81 83  150/ 11/ 14 1014.0
PORT ISABEL      1200   81 82  160/  7/ 12 1013.7
$$

GMZ080-GMZ150>470-251400-
OFFSHORE BUOY REPORTS

STATION/POSITION TIME  TEMP    WIND        PRES    WAVE
                       AIR SEA DIR/SP/G            HT/PER
                 (UTC) (F)     (DEG/KT/KT) (MB)    (FT/S)
20 E GALVESTON   1250   80 80  150/ 12/ 14 1016.7    4/ 6
90 E PT ARANSAS  1250   81 80  130/ 14/ 17 1015.9    4/ 6
35 NE PT MANSFLD 1250   80 80  150/ 12/ 14 1014.0    4/ 7
200 E PT ISABEL  1250                        N/A     5/ 6
$$




USA.gov is the U.S. government's official web portal to all federal, state and local government web resources and services.